Home > Time Zones > World Clock > Weather > Syria > Daraa > Past weeks

Flag for Syria Weather past 2 weeks in Daraa, Syria

Now
75 °F

Clear.


Feels Like: 78 °F
Forecast: 61 / 95 °F
Wind: No wind

Location: Amman Airport

Current Time: Aug 28, 2014 at 1:13:16 AM

Latest Report: Aug 28, 2014 at 12:00 AM


Visibility: 4 mi

Pressure: 29.86 "Hg

Humidity: 47%

Dew point: 54 °F

Location of DaraaLocation

Historic Weather in Daraa — Graph

°F

Daraa temperature yesterday

Maximum temperature yesterday: 90 °F (at 4:00 PM)
Minimum temperature yesterday: 75 °F (at 1:00 AM)
Average temperature yesterday: 81 °F

Past Weeks' High & Low Weather Summary

 TemperatureHumidityPressure
High97 °F (Aug 14, 3:00 PM)88% (Aug 23, 6:00 AM)30.07 "Hg (Aug 23, 6:00 AM)
Low66 °F (Aug 22, 5:00 AM)10% (Aug 21, 1:00 PM)29.74 "Hg (Aug 17, 4:00 PM)
Average82 °F36%29.88 "Hg
* Reported Midnight between Aug 12 and Aug 13 — Midnight between Aug 27 and Aug 28, Daraa, Weather by CustomWeather, © 2014

Note: Actual official high and low records may vary slightly from our data, if they occured in-between our weather recording intervals... More about our weather records

Advertising

Daraa weather history for previous 24 hours

 ConditionsComfort  
Time TempWeatherWind HumidityBarometerVisibility
12:00 AM
Aug 28
75 °FClear.No wind47%29.86 "Hg4 mi
11:00 PM
Aug 27
75 °FClear.2 mph47%29.86 "Hg4 mi
10:00 PM77 °FClear.7 mph47%29.86 "Hg4 mi
9:00 PM79 °FClear.7 mph42%29.86 "Hg4 mi
8:00 PM81 °FClear.12 mph39%29.83 "Hg4 mi
7:00 PM86 °FClear.9 mph29%29.83 "Hg4 mi
6:00 PM88 °FHaze.12 mph27%29.83 "Hg3 mi
5:00 PM88 °FHaze.12 mph25%29.86 "Hg3 mi
4:00 PM90 °FClear.12 mph21%29.86 "Hg4 mi
3:00 PM88 °FClear.14 mph19%29.86 "Hg4 mi
2:00 PM88 °FClear.12 mph19%29.89 "Hg4 mi
1:00 PM88 °FClear.9 mph18%29.89 "Hg4 mi
12:00 PM86 °FClear.9 mph20%29.89 "Hg4 mi
11:00 AM84 °FHaze.7 mph19%29.92 "Hg3 mi
10:00 AM82 °FHaze.13 mph17%29.92 "Hg3 mi
9:00 AM79 °FHaze.5 mph28%29.89 "Hg2 mi
8:00 AM77 °FHaze.5 mph24%29.92 "Hg2 mi
7:00 AM75 °FHaze.5 mph24%29.92 "Hg2 mi
6:00 AM75 °FHaze.5 mph24%29.92 "Hg3 mi
5:00 AM75 °FHaze.5 mph24%29.92 "Hg3 mi
4:00 AM75 °FHaze.7 mph27%29.92 "Hg3 mi
3:00 AM75 °FHaze.7 mph27%29.92 "Hg3 mi
2:00 AM75 °FClear.9 mph27%29.92 "Hg4 mi
1:00 AM75 °FClear.9 mph27%29.92 "Hg4 mi
Weather by CustomWeather, © 2014

See weather overviewHow to use our weather pages